Home > Weather > Guilin > Past weeks

Flag for China Weather for the Past 2 Weeks in Guilin, Guangxi, China

Now
70 °F

Sunny.


Feels Like: 70 °F
Forecast: 37 / 69 °F
Wind: 1 mph from North

Location: Guilin Airport

Current Time: Feb 8, 2016 at 4:35:16 PM

Latest Report: Feb 8, 2016 at 4:00 PM


Visibility: 10 mi

Pressure: 30.12 "Hg

Humidity: 23%

Dew point: 30 °F

Location of GuilinLocation

Historic Weather in Guilin — Graph

°F

Guilin Temperature Yesterday

Maximum temperature yesterday: 66 °F (at 4:00 PM)
Minimum temperature yesterday: 36 °F (at 6:00 AM)
Average temperature yesterday: 48 °F

High & Low Weather Summary for the Past Weeks

 TemperatureHumidityPressure
High68 °F (Feb 8, 3:00 PM)100% (Jan 26, 8:00 PM)30.74 "Hg (Jan 26, 8:00 PM)
Low34 °F (Jan 25, 7:00 AM)22% (Feb 7, 4:00 PM)30.04 "Hg (Jan 28, 2:00 PM)
Average44 °F75%30.33 "Hg
* Reported Jan 24 3:00 PM — Feb 8 3:00 PM, Guilin, Weather by CustomWeather, © 2016

Note: Actual official high and low records may vary slightly from our data, if they occured in-between our weather recording intervals... More about our weather records

Advertising

Guilin Weather History for the Previous 24 Hours

 ConditionsComfort  
Time TempWeatherWind HumidityBarometerVisibility
3:00 PM
Mon, Feb 8
68 °FPassing clouds.3 mph26%30.15 "HgN/A
2:00 PM66 °FSunny.1 mph37%30.18 "Hg10 mi
1:00 PM63 °FClear.1 mph45%30.24 "Hg4 mi
12:00 PM57 °FClear.1 mph55%30.30 "Hg4 mi
11:00 AM54 °FHaze.1 mph58%30.33 "Hg3 mi
10:00 AM46 °FFog.1 mph76%30.33 "Hg2 mi
9:00 AM39 °FFog.No wind100%30.33 "Hg1 mi
8:00 AM34 °FFog.No wind100%30.30 "Hg1 mi
7:00 AM34 °FFog.1 mph100%30.27 "Hg1 mi
6:00 AM34 °FFog.No wind100%30.27 "Hg1 mi
5:00 AM36 °FFog.1 mph100%30.27 "Hg1 mi
4:00 AM36 °FFog.No wind100%30.30 "Hg1 mi
3:00 AM37 °FFog.1 mph100%30.30 "Hg1 mi
2:00 AM37 °FFog.No wind100%30.33 "Hg1 mi
1:00 AM39 °FFog.No wind100%30.33 "Hg1 mi
12:00 AM41 °FFog.No wind93%30.33 "Hg2 mi
11:00 PM
Sun, Feb 7
43 °FFog.No wind87%30.33 "Hg2 mi
10:00 PM45 °FFog.No wind81%30.33 "Hg3 mi
9:00 PM46 °FClear.1 mph71%30.30 "Hg4 mi
8:00 PM52 °FClear.3 mph54%30.30 "Hg10 mi
7:00 PM55 °FClear.3 mph44%30.30 "Hg10 mi
6:00 PM61 °FSunny.6 mph39%30.30 "Hg10 mi
5:00 PM64 °FSunny.3 mph30%30.30 "Hg10 mi
4:00 PM66 °FPassing clouds.6 mph22%30.30 "HgN/A
Weather by CustomWeather, © 2016

See weather overviewHow to use our weather pages